Location: Casa Rossa
(45.2389°N, 12.2056°E)
Time: 04:14:46
(UTC+00:00)

CZ-4B R/B - Pass Details

Date: 14 July 2020
Orbit: 702 x 803 km, 98.9° (Epoch: 11 August)

Event Time Altitude Azimuth Distance (km) Brightness Sun altitude
Rises 00:39:43 0° 21° (NNE) 3,244 8.4 -20.5°
Reaches altitude 10° 00:42:13 10° 29° (NNE) 2,297 7.1 -20.4°
Maximum altitude 00:46:54 38° 98° (E) 1,123 4.4 -20.1°
Enters shadow 00:49:15 24° 149° (SSE) 1,490 4.7 -19.9°
